Home   Weather   Decatur   Past weeks

Flag for USA Past Weather in Decatur, Illinois, USA — Yesterday and Last 2 Weeks

Now
77 °F

Sunny.


Feels Like: 79 °F
Forecast: 65 / 83 °F
Wind: 7 mph from North

Location: Decatur Airport

Current Time: Aug 31, 2016 at 9:33:13 AM

Latest Report: Aug 31, 2016 at 8:54 AM


Visibility: 10 mi

Pressure: 30.03 "Hg

Humidity: 77%

Dew Point: 69 °F

Location of DecaturLocation

Past Weather in Decatur — Graph

°F

Decatur Temperature Yesterday

Maximum temperature yesterday: 83 °F (at 2:54 PM)
Minimum temperature yesterday: 69 °F (at 4:54 AM)
Average temperature yesterday: 76 °F

High & Low Weather Summary for the Past Weeks

 TemperatureHumidityPressure
High90 °F (Aug 28, 4:54 PM)96% (Aug 17, 3:54 AM)30.23 "Hg (Aug 17, 3:54 AM)
Low56 °F (Aug 22, 4:54 AM)45% (Aug 22, 1:54 PM)29.68 "Hg (Aug 20, 9:54 AM)
Average76 °F78%30.05 "Hg
* Reported Aug 16 7:54 AM — Aug 31 7:54 AM, Decatur, Weather by CustomWeather, © 2016

Note: Actual official high and low records may vary slightly from our data, if they occured in-between our weather recording intervals... More about our weather records

Advertising

Decatur Weather History for the Previous 24 Hours

Scroll right to see more
 ConditionsComfort  
Time TempWeatherWind HumidityBarometerVisibility
7:54 AM
Wed, Aug 31
74 °FSunny.3 mph88%30.04 "Hg10 mi
6:54 AM71 °FFog.No wind96%30.04 "Hg4 mi
6:01 AM72 °FFog.5 mph93%30.05 "Hg4 mi
5:54 AM72 °FFog.6 mph93%30.03 "Hg5 mi
4:54 AM72 °FClear.No wind93%30.02 "Hg7 mi
3:54 AM73 °FClear.6 mph90%30.02 "Hg8 mi
2:54 AM73 °FClear.6 mph90%30.04 "Hg9 mi
1:54 AM73 °FPassing clouds.3 mph90%30.04 "Hg10 mi
12:54 AM74 °FPassing clouds.No wind88%30.05 "Hg10 mi
11:54 PM
Tue, Aug 30
74 °FPassing clouds.5 mph88%30.06 "Hg10 mi
10:54 PM73 °FClear.No wind88%30.06 "Hg10 mi
9:54 PM75 °FClear.No wind82%30.06 "Hg10 mi
8:54 PM76 °FClear.6 mph80%30.06 "Hg10 mi
7:54 PM76 °FSunny.6 mph80%30.05 "Hg10 mi
6:54 PM78 °FSunny.8 mph71%30.04 "Hg10 mi
5:54 PM80 °FSunny.9 mph67%30.05 "Hg10 mi
4:54 PM81 °FSunny.6 mph74%30.07 "Hg10 mi
3:54 PM82 °FSunny.7 mph72%30.08 "Hg10 mi
2:54 PM83 °FSunny.9 mph70%30.08 "Hg10 mi
1:54 PM82 °FSunny.7 mph79%30.08 "Hg10 mi
12:54 PM77 °FBroken clouds.3 mph85%30.11 "Hg10 mi
11:54 AM77 °FLight rain. Partly sunny.5 mph82%30.14 "Hg7 mi
10:54 AM80 °FScattered clouds.10 mph74%30.16 "Hg10 mi
9:54 AM78 °FBroken clouds.7 mph79%30.17 "Hg10 mi
Weather by CustomWeather, © 2016

See weather overviewHow to use our weather pages